TimePST,TemperatureF,Dew PointF,Humidity,Sea Level PressureIn,VisibilityMPH,Wind Direction,Wind SpeedMPH,Gust SpeedMPH,PrecipitationIn,Events,Conditions,WindDirDegrees,DateUTC
12:15 AM,46.4,44.6,93,30.34,10.0,Calm,Calm,-,N/A,,Mostly Cloudy,0,2013-02-01 08:15:00
12:35 AM,46.4,44.6,93,30.34,6.0,Calm,Calm,-,N/A,,Overcast,0,2013-02-01 08:35:00
12:55 AM,44.6,44.6,100,30.34,9.0,Calm,Calm,-,N/A,,Overcast,0,2013-02-01 08:55:00
1:15 AM,44.6,44.6,100,30.35,9.0,WSW,3.5,-,N/A,,Overcast,250,2013-02-01 09:15:00
1:35 AM,44.6,44.6,100,30.35,10.0,Calm,Calm,-,N/A,,Overcast,0,2013-02-01 09:35:00
1:55 AM,44.6,44.6,100,30.36,10.0,WSW,3.5,-,N/A,,Overcast,250,2013-02-01 09:55:00
2:15 AM,44.6,44.6,100,30.36,10.0,West,3.5,-,N/A,,Overcast,260,2013-02-01 10:15:00
2:35 AM,44.6,44.6,100,30.37,10.0,Calm,Calm,-,N/A,,Overcast,0,2013-02-01 10:35:00
2:55 AM,44.6,44.6,100,30.37,10.0,Calm,Calm,-,N/A,,Mostly Cloudy,0,2013-02-01 10:55:00
3:15 AM,42.8,42.8,100,30.37,10.0,Calm,Calm,-,N/A,,Mostly Cloudy,0,2013-02-01 11:15:00
3:35 AM,41.0,41.0,100,30.37,3.0,Calm,Calm,-,N/A,,Scattered Clouds,0,2013-02-01 11:35:00
3:55 AM,41.0,41.0,100,30.37,7.0,Calm,Calm,-,N/A,,Mostly Cloudy,0,2013-02-01 11:55:00
4:15 AM,39.2,39.2,100,30.37,1.8,Calm,Calm,-,N/A,,Overcast,0,2013-02-01 12:15:00
4:35 AM,39.2,39.2,100,30.37,1.8,Calm,Calm,-,N/A,,Overcast,0,2013-02-01 12:35:00
4:55 AM,41.0,41.0,100,30.38,8.0,Calm,Calm,-,N/A,,Overcast,0,2013-02-01 12:55:00
5:15 AM,41.0,41.0,100,30.37,10.0,Calm,Calm,-,N/A,,Overcast,0,2013-02-01 13:15:00
5:35 AM,41.0,41.0,100,30.37,2.5,Calm,Calm,-,N/A,,Mostly Cloudy,0,2013-02-01 13:35:00
5:55 AM,39.2,39.2,100,30.37,3.0,Calm,Calm,-,N/A,,Overcast,0,2013-02-01 13:55:00
6:15 AM,41.0,41.0,100,30.37,5.0,Calm,Calm,-,N/A,,Overcast,0,2013-02-01 14:15:00
6:35 AM,41.0,41.0,100,30.37,5.0,Calm,Calm,-,N/A,,Overcast,0,2013-02-01 14:35:00
6:55 AM,41.0,41.0,100,30.37,4.0,Calm,Calm,-,N/A,,Overcast,0,2013-02-01 14:55:00
7:15 AM,41.0,41.0,100,30.37,1.2,Calm,Calm,-,N/A,,Overcast,0,2013-02-01 15:15:00
7:35 AM,39.2,39.2,100,30.37,0.5,Calm,Calm,-,N/A,Fog,Fog,0,2013-02-01 15:35:00
7:55 AM,39.2,39.2,100,30.37,0.5,Calm,Calm,-,N/A,Fog,Fog,0,2013-02-01 15:55:00
8:15 AM,41.0,41.0,100,30.36,3.0,Calm,Calm,-,N/A,,Mostly Cloudy,0,2013-02-01 16:15:00
8:35 AM,41.0,41.0,100,30.37,5.0,Calm,Calm,-,N/A,,Overcast,0,2013-02-01 16:35:00
8:55 AM,41.0,41.0,100,30.37,5.0,Calm,Calm,-,N/A,,Overcast,0,2013-02-01 16:55:00
9:15 AM,42.8,42.8,100,30.37,7.0,Calm,Calm,-,N/A,,Overcast,0,2013-02-01 17:15:00
9:55 AM,46.4,46.4,100,30.38,10.0,Calm,Calm,-,N/A,,Mostly Cloudy,0,2013-02-01 17:55:00
10:15 AM,48.2,44.6,87,30.38,10.0,Calm,Calm,-,N/A,,Mostly Cloudy,0,2013-02-01 18:15:00
10:35 AM,46.4,46.4,100,30.39,10.0,NW,3.5,-,N/A,,Overcast,320,2013-02-01 18:35:00
10:55 AM,46.4,44.6,93,30.39,10.0,Calm,Calm,-,N/A,,Mostly Cloudy,0,2013-02-01 18:55:00
11:15 AM,46.4,44.6,93,30.40,10.0,Calm,Calm,-,N/A,,Partly Cloudy,0,2013-02-01 19:15:00
11:35 AM,46.4,44.6,93,30.40,10.0,Calm,Calm,-,N/A,,Partly Cloudy,0,2013-02-01 19:35:00
11:55 AM,50.0,44.6,82,30.39,10.0,North,3.5,-,N/A,,Scattered Clouds,360,2013-02-01 19:55:00
12:15 PM,46.4,44.6,93,30.39,10.0,North,4.6,-,N/A,,Mostly Cloudy,360,2013-02-01 20:15:00
12:35 PM,48.2,44.6,87,30.39,10.0,North,4.6,-,N/A,,Mostly Cloudy,10,2013-02-01 20:35:00
12:55 PM,50.0,42.8,76,30.38,10.0,NE,4.6,-,N/A,,Scattered Clouds,50,2013-02-01 20:55:00
1:15 PM,48.2,42.8,82,30.38,10.0,NNE,4.6,-,N/A,,Partly Cloudy,30,2013-02-01 21:15:00
1:35 PM,50.0,41.0,71,30.37,10.0,ENE,4.6,-,N/A,,Partly Cloudy,60,2013-02-01 21:35:00
1:55 PM,48.2,44.6,87,30.37,10.0,NNE,3.5,-,N/A,,Mostly Cloudy,20,2013-02-01 21:55:00
2:15 PM,48.2,44.6,87,30.37,10.0,North,3.5,-,N/A,,Overcast,350,2013-02-01 22:15:00
2:35 PM,48.2,44.6,87,30.36,10.0,NNE,4.6,-,N/A,,Mostly Cloudy,20,2013-02-01 22:35:00
2:55 PM,48.2,42.8,82,30.36,10.0,East,3.5,-,N/A,,Mostly Cloudy,80,2013-02-01 22:55:00
3:15 PM,48.2,42.8,82,30.36,10.0,Calm,Calm,-,N/A,,Scattered Clouds,0,2013-02-01 23:15:00
3:35 PM,50.0,42.8,76,30.36,10.0,North,3.5,-,N/A,,Mostly Cloudy,360,2013-02-01 23:35:00
3:55 PM,48.2,41.0,76,30.36,10.0,North,3.5,-,N/A,,Overcast,10,2013-02-01 23:55:00
4:15 PM,48.2,42.8,82,30.36,10.0,Calm,Calm,-,N/A,,Overcast,0,2013-02-02 00:15:00
4:35 PM,48.2,44.6,87,30.36,10.0,Calm,Calm,-,N/A,,Overcast,0,2013-02-02 00:35:00
4:55 PM,48.2,44.6,87,30.36,10.0,Calm,Calm,-,N/A,,Overcast,0,2013-02-02 00:55:00
5:15 PM,46.4,42.8,87,30.35,10.0,Calm,Calm,-,N/A,,Mostly Cloudy,0,2013-02-02 01:15:00
5:35 PM,46.4,44.6,93,30.36,10.0,Calm,Calm,-,N/A,,Overcast,0,2013-02-02 01:35:00
5:55 PM,46.4,44.6,93,30.36,10.0,Calm,Calm,-,N/A,,Overcast,0,2013-02-02 01:55:00
6:15 PM,46.4,44.6,93,30.36,10.0,Calm,Calm,-,N/A,,Overcast,0,2013-02-02 02:15:00
6:35 PM,46.4,44.6,93,30.36,10.0,Calm,Calm,-,N/A,,Overcast,0,2013-02-02 02:35:00
6:55 PM,46.4,44.6,93,30.36,10.0,Calm,Calm,-,N/A,,Overcast,0,2013-02-02 02:55:00
7:15 PM,44.6,42.8,93,30.36,10.0,Calm,Calm,-,N/A,,Overcast,0,2013-02-02 03:15:00
7:35 PM,44.6,42.8,93,30.36,10.0,Calm,Calm,-,N/A,,Overcast,0,2013-02-02 03:35:00
7:55 PM,42.8,42.8,100,30.36,10.0,Calm,Calm,-,N/A,,Overcast,0,2013-02-02 03:55:00
8:15 PM,42.8,42.8,100,30.37,10.0,Calm,Calm,-,N/A,,Overcast,0,2013-02-02 04:15:00
8:35 PM,41.0,41.0,100,30.37,10.0,Calm,Calm,-,N/A,,Mostly Cloudy,0,2013-02-02 04:35:00
8:55 PM,41.0,41.0,100,30.38,7.0,Calm,Calm,-,N/A,,Mostly Cloudy,0,2013-02-02 04:55:00
9:15 PM,39.2,39.2,100,30.38,7.0,Calm,Calm,-,N/A,,Mostly Cloudy,0,2013-02-02 05:15:00
9:35 PM,39.2,39.2,100,30.38,4.0,Calm,Calm,-,N/A,,Partly Cloudy,0,2013-02-02 05:35:00
9:55 PM,37.4,37.4,100,30.38,1.2,Calm,Calm,-,N/A,,Overcast,0,2013-02-02 05:55:00
10:15 PM,39.2,39.2,100,30.38,4.0,Calm,Calm,-,N/A,,Mostly Cloudy,0,2013-02-02 06:15:00
10:55 PM,41.0,41.0,100,30.37,5.0,Calm,Calm,-,N/A,,Overcast,0,2013-02-02 06:55:00
11:15 PM,41.0,41.0,100,30.37,7.0,Calm,Calm,-,N/A,,Overcast,0,2013-02-02 07:15:00
11:55 PM,41.0,41.0,100,30.36,6.0,Calm,Calm,-,N/A,,Overcast,0,2013-02-02 07:55:00